VXP417 KGSP-KHVN

Flight info

Callsign VXP417
Flight time 1h 49m
Altitude 37000
Route BIMMR3 DRIVN GULFY BARMY BATTA TYI Q64 SAWED Q97 KALDA SARDI1
Aircraft B738/M-SDE2E3FGHIRWXY/LB1

Departure

Time 2026-04-26 20:16
Airport Greenville-Spartanburg International Airport (KGSP)

Arrival

Time 2026-04-26 22:06
Airport Tweed New Haven Airport (KHVN)
Time Latitude Longitude Altitude Speed Heading
2026-04-26 19:55 34.88890 -82.21855 959 ft 0 kts 10°
2026-04-26 20:06 34.88888 -82.21856 959 ft 2 kts
2026-04-26 20:06 34.88864 -82.21856 955 ft 4 kts 336°
2026-04-26 20:06 34.88846 -82.21837 956 ft 4 kts 286°
2026-04-26 20:06 34.88844 -82.21816 956 ft 0 kts 259°
2026-04-26 20:09 34.88841 -82.21836 959 ft 5 kts 261°
2026-04-26 20:09 34.88849 -82.21901 956 ft 11 kts 294°
2026-04-26 20:09 34.88901 -82.21966 959 ft 11 kts 333°
2026-04-26 20:09 34.88971 -82.21995 957 ft 10 kts 344°
2026-04-26 20:10 34.89011 -82.22057 958 ft 10 kts 256°
2026-04-26 20:10 34.88961 -82.22114 958 ft 10 kts 212°
2026-04-26 20:10 34.88903 -82.22158 959 ft 10 kts 212°
2026-04-26 20:10 34.88847 -82.22200 958 ft 9 kts 212°
2026-04-26 20:11 34.88792 -82.22242 959 ft 9 kts 212°
2026-04-26 20:11 34.88739 -82.22282 960 ft 9 kts 212°
2026-04-26 20:11 34.88687 -82.22321 957 ft 9 kts 212°
2026-04-26 20:12 34.88589 -82.22397 958 ft 8 kts 212°
2026-04-26 20:12 34.88541 -82.22434 958 ft 8 kts 212°
2026-04-26 20:12 34.88496 -82.22469 958 ft 8 kts 212°
2026-04-26 20:12 34.88451 -82.22503 960 ft 7 kts 212°
2026-04-26 20:13 34.88409 -82.22536 958 ft 7 kts 212°
2026-04-26 20:13 34.88367 -82.22568 959 ft 8 kts 212°
2026-04-26 20:13 34.88299 -82.22619 957 ft 14 kts 213°
2026-04-26 20:13 34.88230 -82.22694 958 ft 13 kts 247°
2026-04-26 20:14 34.88241 -82.22746 958 ft 3 kts 300°
2026-04-26 20:14 34.88248 -82.22762 957 ft 0 kts 302°
2026-04-26 20:15 34.88253 -82.22771 958 ft 6 kts 302°
2026-04-26 20:15 34.88303 -82.22835 959 ft 12 kts 342°
2026-04-26 20:15 34.88362 -82.22807 958 ft 7 kts 31°
2026-04-26 20:16 34.88575 -82.22643 960 ft 77 kts 32°
2026-04-26 20:16 34.89250 -82.22124 958 ft 150 kts 34°
2026-04-26 20:16 34.90283 -82.21318 1230 ft 192 kts 36°
2026-04-26 20:16 34.91419 -82.20387 2091 ft 203 kts 37°
2026-04-26 20:17 34.92728 -82.19459 2523 ft 229 kts 30°
2026-04-26 20:17 34.93674 -82.18839 2805 ft 237 kts 30°
2026-04-26 20:17 34.95162 -82.17849 3184 ft 248 kts 36°
2026-04-26 20:17 34.96290 -82.16282 3602 ft 250 kts 64°
2026-04-26 20:18 34.96584 -82.13581 4212 ft 247 kts 97°
2026-04-26 20:18 34.95901 -82.11562 4505 ft 271 kts 123°
2026-04-26 20:18 34.95021 -82.10414 4974 ft 277 kts 140°
2026-04-26 20:18 34.93442 -82.09060 5884 ft 279 kts 144°
2026-04-26 20:19 34.91781 -82.07753 6558 ft 289 kts 146°
2026-04-26 20:19 34.90093 -82.06436 7394 ft 289 kts 146°
2026-04-26 20:19 34.88385 -82.05095 8092 ft 296 kts 145°
2026-04-26 20:19 34.86684 -82.03747 8983 ft 294 kts 145°
2026-04-26 20:20 34.84960 -82.02372 9796 ft 296 kts 146°
2026-04-26 20:20 34.83236 -82.00991 10529 ft 300 kts 144°
2026-04-26 20:20 34.81483 -81.99583 11237 ft 302 kts 145°
2026-04-26 20:20 34.79715 -81.98164 11828 ft 312 kts 145°
2026-04-26 20:21 34.77839 -81.96650 11981 ft 335 kts 143°
2026-04-26 20:21 34.76158 -81.94637 12256 ft 346 kts 120°
2026-04-26 20:21 34.74918 -81.92103 12870 ft 352 kts 117°
2026-04-26 20:21 34.73882 -81.89412 13588 ft 351 kts 102°
2026-04-26 20:22 34.73711 -81.86473 14220 ft 351 kts 81°
2026-04-26 20:22 34.74338 -81.83616 14752 ft 353 kts 62°
2026-04-26 20:22 34.75567 -81.80995 15245 ft 360 kts 57°
2026-04-26 20:22 34.76889 -81.78405 15907 ft 362 kts 56°
2026-04-26 20:23 34.78236 -81.75789 16417 ft 368 kts 55°
2026-04-26 20:23 34.79601 -81.73114 16940 ft 374 kts 55°
2026-04-26 20:23 34.80970 -81.70400 17511 ft 379 kts 55°
2026-04-26 20:23 34.82352 -81.67633 18082 ft 384 kts 55°
2026-04-26 20:24 34.83745 -81.64836 18607 ft 388 kts 55°
2026-04-26 20:24 34.85148 -81.62012 19124 ft 391 kts 55°
2026-04-26 20:24 34.86551 -81.59204 19624 ft 395 kts 55°
2026-04-26 20:24 34.88019 -81.56306 19737 ft 410 kts 54°
2026-04-26 20:25 34.89551 -81.53295 19848 ft 424 kts 54°
2026-04-26 20:25 34.90593 -81.51246 19902 ft 433 kts 55°
2026-04-26 20:25 34.92736 -81.47017 20362 ft 440 kts 55°
2026-04-26 20:25 34.94345 -81.43830 20770 ft 443 kts 55°
2026-04-26 20:26 34.95964 -81.40618 21199 ft 446 kts 55°
2026-04-26 20:26 34.97588 -81.37393 21633 ft 448 kts 55°
2026-04-26 20:26 34.99221 -81.34147 22080 ft 450 kts 55°
2026-04-26 20:26 35.00857 -81.30892 22530 ft 451 kts 55°
2026-04-26 20:27 35.02505 -81.27613 22990 ft 453 kts 55°
2026-04-26 20:27 35.04155 -81.24325 23445 ft 454 kts 55°
2026-04-26 20:27 35.05805 -81.21035 23869 ft 455 kts 55°
2026-04-26 20:27 35.07460 -81.17732 24263 ft 457 kts 55°
2026-04-26 20:28 35.09098 -81.14460 24641 ft 458 kts 54°
2026-04-26 20:28 35.10761 -81.11135 25042 ft 458 kts 54°
2026-04-26 20:28 35.12425 -81.07808 25450 ft 459 kts 54°
2026-04-26 20:28 35.14088 -81.04479 25875 ft 459 kts 54°
2026-04-26 20:29 35.15752 -81.01145 26297 ft 460 kts 54°
2026-04-26 20:29 35.17418 -80.97804 26720 ft 460 kts 54°
2026-04-26 20:29 35.19083 -80.94463 27150 ft 459 kts 54°
2026-04-26 20:29 35.20730 -80.91115 27581 ft 460 kts 57°
2026-04-26 20:30 35.21877 -80.87448 27984 ft 468 kts 77°
2026-04-26 20:30 35.22305 -80.83506 28496 ft 467 kts 80°
2026-04-26 20:30 35.22683 -80.79548 28828 ft 470 kts 80°
2026-04-26 20:30 35.23075 -80.75552 29076 ft 475 kts 80°
2026-04-26 20:31 35.23485 -80.71522 29372 ft 479 kts 79°
2026-04-26 20:31 35.23909 -80.67482 29678 ft 481 kts 79°
2026-04-26 20:31 35.24337 -80.63476 29986 ft 482 kts 79°
2026-04-26 20:31 35.24776 -80.59397 30236 ft 485 kts 79°
2026-04-26 20:32 35.25218 -80.55293 30465 ft 487 kts 79°
2026-04-26 20:32 35.25660 -80.51181 30735 ft 488 kts 80°
2026-04-26 20:32 35.26098 -80.47070 31080 ft 487 kts 80°
2026-04-26 20:32 35.26534 -80.42961 31453 ft 485 kts 80°
2026-04-26 20:33 35.26966 -80.38867 31788 ft 485 kts 80°
2026-04-26 20:33 35.27398 -80.34770 32078 ft 485 kts 80°
2026-04-26 20:33 35.27828 -80.30680 32356 ft 485 kts 79°
2026-04-26 20:33 35.28258 -80.26578 32673 ft 485 kts 79°
2026-04-26 20:34 35.28685 -80.22488 32996 ft 484 kts 79°
2026-04-26 20:34 35.29110 -80.18404 33306 ft 483 kts 79°
2026-04-26 20:34 35.29533 -80.14326 33593 ft 484 kts 80°
2026-04-26 20:34 35.30005 -80.10251 33827 ft 483 kts 76°
2026-04-26 20:35 35.30885 -80.06305 34085 ft 478 kts 66°
2026-04-26 20:35 35.32034 -80.02498 34366 ft 476 kts 65°
2026-04-26 20:35 35.33212 -79.98704 34586 ft 476 kts 65°
2026-04-26 20:35 35.34376 -79.94904 34849 ft 476 kts 66°
2026-04-26 20:36 35.35495 -79.91160 35160 ft 473 kts 66°
2026-04-26 20:36 35.36609 -79.87369 35378 ft 474 kts 66°
2026-04-26 20:36 35.37720 -79.83565 35515 ft 475 kts 66°
2026-04-26 20:36 35.38833 -79.79742 35691 ft 476 kts 66°
2026-04-26 20:37 35.39943 -79.75918 35910 ft 475 kts 67°
2026-04-26 20:37 35.41048 -79.72108 36131 ft 475 kts 67°
2026-04-26 20:37 35.42153 -79.68292 36356 ft 474 kts 67°
2026-04-26 20:37 35.43254 -79.64485 36554 ft 474 kts 67°
2026-04-26 20:38 35.44357 -79.60667 36728 ft 474 kts 67°
2026-04-26 20:38 35.45459 -79.56852 36930 ft 474 kts 67°
2026-04-26 20:38 35.46560 -79.53032 37070 ft 475 kts 67°
2026-04-26 20:39 35.48770 -79.45354 37069 ft 477 kts 67°
2026-04-26 20:39 35.50963 -79.37707 37064 ft 474 kts 68°
2026-04-26 20:40 35.53139 -79.30097 37072 ft 471 kts 68°
2026-04-26 20:40 35.55290 -79.22558 37073 ft 470 kts 68°
2026-04-26 20:41 35.57446 -79.14982 37073 ft 470 kts 68°
2026-04-26 20:41 35.59598 -79.07405 37077 ft 470 kts 68°
2026-04-26 20:42 35.61759 -78.99813 37083 ft 471 kts 68°
2026-04-26 20:42 35.63925 -78.92192 37081 ft 473 kts 68°
2026-04-26 20:43 35.66096 -78.84530 37079 ft 475 kts 68°
2026-04-26 20:43 35.68267 -78.76842 37070 ft 477 kts 68°
2026-04-26 20:44 35.70444 -78.69112 37075 ft 478 kts 68°
2026-04-26 20:44 35.72617 -78.61372 37083 ft 479 kts 69°
2026-04-26 20:45 35.74789 -78.53616 37069 ft 479 kts 69°
2026-04-26 20:45 35.76955 -78.45855 37070 ft 479 kts 69°
2026-04-26 20:46 35.79109 -78.38117 37073 ft 477 kts 69°
2026-04-26 20:46 35.81253 -78.30393 37070 ft 475 kts 69°
2026-04-26 20:47 35.83370 -78.22746 37085 ft 473 kts 69°
2026-04-26 20:47 35.85402 -78.15387 37085 ft 473 kts 69°
2026-04-26 20:48 35.87512 -78.07722 37102 ft 471 kts 69°
2026-04-26 20:48 35.89611 -78.00075 37100 ft 471 kts 69°
2026-04-26 20:49 35.91706 -77.92425 37089 ft 470 kts 70°
2026-04-26 20:49 35.93794 -77.84772 37093 ft 470 kts 70°
2026-04-26 20:50 35.95880 -77.77112 37100 ft 471 kts 70°
2026-04-26 20:50 35.98505 -77.69751 37112 ft 467 kts 55°
2026-04-26 20:51 36.02597 -77.63604 37124 ft 463 kts 44°
2026-04-26 20:51 36.07033 -77.57804 37109 ft 465 kts 44°
2026-04-26 20:52 36.11453 -77.51948 37125 ft 467 kts 45°
2026-04-26 20:52 36.15841 -77.46051 37110 ft 469 kts 45°
2026-04-26 20:53 36.20258 -77.40085 37113 ft 470 kts 45°
2026-04-26 20:53 36.24678 -77.34108 37116 ft 471 kts 45°
2026-04-26 20:54 36.29104 -77.28117 37119 ft 471 kts 45°
2026-04-26 20:54 36.33643 -77.22267 37118 ft 469 kts 41°
2026-04-26 20:55 36.38499 -77.16867 37119 ft 468 kts 39°
2026-04-26 20:55 36.43355 -77.11574 37118 ft 467 kts 39°
2026-04-26 20:56 36.48207 -77.06199 37116 ft 467 kts 40°
2026-04-26 20:56 36.53039 -77.00783 37131 ft 467 kts 40°
2026-04-26 20:57 36.57853 -76.95361 37128 ft 466 kts 40°
2026-04-26 20:57 36.62662 -76.89935 37127 ft 466 kts 40°
2026-04-26 20:58 36.67434 -76.84544 37115 ft 466 kts 40°
2026-04-26 20:58 36.72235 -76.79114 37127 ft 466 kts 40°
2026-04-26 20:59 36.77042 -76.73667 37136 ft 467 kts 40°
2026-04-26 20:59 36.81853 -76.68205 37133 ft 468 kts 40°
2026-04-26 21:00 36.86674 -76.62722 37120 ft 469 kts 40°
2026-04-26 21:00 36.91503 -76.57220 37128 ft 470 kts 40°
2026-04-26 21:01 36.96334 -76.51705 37151 ft 471 kts 40°
2026-04-26 21:01 37.01169 -76.46176 37113 ft 471 kts 41°
2026-04-26 21:02 37.05984 -76.40662 37111 ft 472 kts 41°
2026-04-26 21:02 37.10833 -76.35097 37113 ft 473 kts 41°
2026-04-26 21:03 37.15694 -76.29508 37129 ft 474 kts 40°
2026-04-26 21:03 37.20556 -76.23908 37117 ft 475 kts 41°
2026-04-26 21:04 37.25422 -76.18293 37128 ft 475 kts 41°
2026-04-26 21:04 37.30281 -76.12675 37125 ft 475 kts 41°
2026-04-26 21:05 37.35137 -76.07051 37136 ft 475 kts 41°
2026-04-26 21:05 37.39176 -76.02364 37138 ft 475 kts 40°
2026-04-26 21:06 37.44033 -75.96719 37139 ft 476 kts 40°
2026-04-26 21:06 37.49692 -75.90130 37137 ft 476 kts 40°
2026-04-26 21:06 37.51423 -75.88356 36946 ft 477 kts 33°
2026-04-26 21:07 37.54047 -75.85866 36698 ft 481 kts 39°
2026-04-26 21:07 37.59368 -75.80800 36842 ft 477 kts 27°
2026-04-26 21:07 37.62257 -75.78749 37127 ft 474 kts 25°
2026-04-26 21:08 37.65162 -75.76753 37112 ft 477 kts 26°
2026-04-26 21:08 37.70931 -75.72629 37126 ft 475 kts 27°
2026-04-26 21:09 37.76596 -75.68366 37133 ft 472 kts 28°
2026-04-26 21:09 37.82220 -75.64099 37149 ft 470 kts 27°
2026-04-26 21:10 37.87707 -75.59702 37152 ft 470 kts 31°
2026-04-26 21:10 37.93076 -75.54964 37159 ft 470 kts 32°
2026-04-26 21:11 37.98447 -75.50234 37145 ft 470 kts 31°
2026-04-26 21:11 38.03858 -75.45523 37149 ft 472 kts 31°
2026-04-26 21:12 38.09318 -75.40907 37136 ft 472 kts 29°
2026-04-26 21:12 38.14881 -75.36445 37161 ft 473 kts 28°
2026-04-26 21:13 38.20410 -75.31960 37190 ft 476 kts 29°
2026-04-26 21:13 38.26074 -75.27570 37163 ft 474 kts 20°
2026-04-26 21:14 38.32184 -75.24556 37177 ft 471 kts 15°
2026-04-26 21:14 38.38355 -75.21691 37173 ft 472 kts 16°
2026-04-26 21:15 38.44490 -75.18759 37171 ft 467 kts 17°
2026-04-26 21:15 38.50481 -75.15846 37160 ft 458 kts 17°
2026-04-26 21:16 38.56410 -75.12960 37149 ft 451 kts 17°
2026-04-26 21:16 38.62176 -75.10145 37160 ft 440 kts 18°
2026-04-26 21:17 38.67442 -75.06092 37171 ft 448 kts 38°
2026-04-26 21:17 38.72058 -75.00653 37178 ft 455 kts 40°
2026-04-26 21:18 38.76755 -74.95145 37179 ft 460 kts 39°
2026-04-26 21:18 38.81627 -74.89786 37182 ft 461 kts 35°
2026-04-26 21:19 38.86584 -74.84726 37172 ft 452 kts 34°
2026-04-26 21:19 38.91451 -74.79718 37177 ft 447 kts 35°
2026-04-26 21:20 38.96291 -74.74681 37186 ft 448 kts 35°
2026-04-26 21:20 39.01139 -74.69600 37181 ft 449 kts 36°
2026-04-26 21:21 39.05979 -74.64508 37183 ft 451 kts 35°
2026-04-26 21:21 39.10837 -74.59390 37179 ft 452 kts 35°
2026-04-26 21:22 39.15679 -74.54265 37168 ft 453 kts 36°
2026-04-26 21:22 39.20495 -74.49010 37166 ft 454 kts 37°
2026-04-26 21:23 39.27727 -74.41098 37164 ft 454 kts 36°
2026-04-26 21:23 39.32533 -74.35822 37168 ft 453 kts 36°
2026-04-26 21:24 39.37322 -74.30541 37177 ft 452 kts 36°
2026-04-26 21:24 39.42101 -74.25266 37184 ft 451 kts 36°
2026-04-26 21:25 39.46872 -74.19988 37174 ft 451 kts 36°
2026-04-26 21:25 39.51595 -74.14724 37179 ft 450 kts 37°
2026-04-26 21:26 39.55811 -74.08684 36970 ft 451 kts 48°
2026-04-26 21:26 39.57753 -74.05501 36434 ft 450 kts 48°
2026-04-26 21:26 39.59725 -74.02339 35877 ft 452 kts 47°
2026-04-26 21:27 39.61718 -73.99204 35446 ft 450 kts 47°
2026-04-26 21:27 39.63716 -73.96073 35027 ft 449 kts 47°
2026-04-26 21:27 39.65701 -73.92961 34678 ft 444 kts 47°
2026-04-26 21:27 39.67651 -73.89895 34274 ft 437 kts 47°
2026-04-26 21:28 39.69574 -73.86867 33695 ft 433 kts 47°
2026-04-26 21:28 39.71480 -73.83864 33115 ft 429 kts 47°
2026-04-26 21:28 39.73366 -73.80889 32599 ft 424 kts 47°
2026-04-26 21:28 39.75229 -73.77947 32107 ft 419 kts 47°
2026-04-26 21:29 39.77068 -73.75038 31687 ft 412 kts 46°
2026-04-26 21:29 39.78891 -73.72157 30932 ft 415 kts 46°
2026-04-26 21:29 39.80851 -73.69433 30309 ft 410 kts 41°
2026-04-26 21:29 39.82737 -73.66668 29694 ft 409 kts 48°
2026-04-26 21:30 39.84423 -73.63725 29208 ft 402 kts 50°
2026-04-26 21:30 39.86084 -73.60833 28753 ft 394 kts 48°
2026-04-26 21:30 39.87747 -73.58090 28325 ft 387 kts 46°
2026-04-26 21:30 39.89426 -73.55402 27899 ft 380 kts 46°
2026-04-26 21:31 39.91157 -73.52857 27477 ft 370 kts 39°
2026-04-26 21:31 39.93013 -73.50599 27067 ft 362 kts 36°
2026-04-26 21:31 39.94890 -73.48457 26651 ft 356 kts 35°
2026-04-26 21:31 39.96747 -73.46348 26206 ft 351 kts 35°
2026-04-26 21:32 39.98572 -73.44251 25787 ft 347 kts 35°
2026-04-26 21:32 40.00360 -73.42170 25374 ft 342 kts 36°
2026-04-26 21:32 40.02120 -73.40102 24964 ft 338 kts 36°
2026-04-26 21:32 40.03853 -73.38053 24563 ft 334 kts 35°
2026-04-26 21:33 40.05526 -73.36071 24183 ft 330 kts 35°
2026-04-26 21:33 40.07248 -73.34029 23788 ft 326 kts 35°
2026-04-26 21:33 40.08914 -73.32049 23351 ft 322 kts 35°
2026-04-26 21:33 40.10555 -73.30097 22966 ft 316 kts 35°
2026-04-26 21:34 40.12172 -73.28173 22599 ft 313 kts 35°
2026-04-26 21:34 40.13773 -73.26265 22249 ft 311 kts 34°
2026-04-26 21:34 40.15364 -73.24369 21881 ft 308 kts 34°
2026-04-26 21:34 40.16938 -73.22492 21530 ft 306 kts 35°
2026-04-26 21:35 40.18508 -73.20619 21176 ft 304 kts 35°
2026-04-26 21:35 40.20060 -73.18765 20828 ft 299 kts 35°
2026-04-26 21:35 40.21562 -73.16969 20495 ft 294 kts 35°
2026-04-26 21:35 40.23060 -73.15176 20169 ft 289 kts 35°
2026-04-26 21:36 40.24530 -73.13416 19852 ft 284 kts 35°
2026-04-26 21:36 40.25510 -73.12243 19637 ft 281 kts 35°
2026-04-26 21:36 40.27396 -73.09986 19228 ft 274 kts 35°
2026-04-26 21:36 40.28792 -73.08313 18932 ft 269 kts 34°
2026-04-26 21:37 40.30160 -73.06674 18634 ft 264 kts 34°
2026-04-26 21:37 40.31507 -73.05058 18334 ft 260 kts 34°
2026-04-26 21:37 40.32825 -73.03476 18041 ft 254 kts 34°
2026-04-26 21:37 40.34110 -73.01932 17760 ft 247 kts 34°
2026-04-26 21:38 40.35364 -73.00426 17503 ft 241 kts 34°
2026-04-26 21:38 40.36584 -72.98962 17259 ft 235 kts 34°
2026-04-26 21:38 40.37770 -72.97539 17022 ft 233 kts 34°
2026-04-26 21:38 40.38957 -72.96114 16784 ft 231 kts 34°
2026-04-26 21:39 40.40147 -72.94685 16567 ft 233 kts 34°
2026-04-26 21:39 40.41358 -72.93233 16343 ft 238 kts 35°
2026-04-26 21:39 40.42589 -72.91752 16145 ft 244 kts 35°
2026-04-26 21:39 40.43919 -72.90161 15941 ft 273 kts 36°
2026-04-26 21:40 40.45325 -72.88465 15847 ft 273 kts 36°
2026-04-26 21:40 40.46718 -72.86773 15598 ft 272 kts 36°
2026-04-26 21:40 40.48108 -72.85089 15230 ft 272 kts 37°
2026-04-26 21:40 40.49502 -72.83403 14871 ft 272 kts 37°
2026-04-26 21:41 40.50895 -72.81718 14561 ft 271 kts 37°
2026-04-26 21:41 40.52259 -72.80066 14260 ft 269 kts 37°
2026-04-26 21:41 40.53631 -72.78403 13944 ft 267 kts 38°
2026-04-26 21:41 40.54991 -72.76755 13619 ft 265 kts 38°
2026-04-26 21:42 40.56341 -72.75117 13288 ft 263 kts 38°
2026-04-26 21:42 40.57686 -72.73485 12971 ft 261 kts 38°
2026-04-26 21:42 40.59006 -72.71882 12637 ft 256 kts 38°
2026-04-26 21:42 40.60307 -72.70301 12142 ft 254 kts 39°
2026-04-26 21:43 40.61581 -72.68687 11619 ft 254 kts 47°
2026-04-26 21:43 40.62371 -72.66587 11068 ft 262 kts 74°
2026-04-26 21:43 40.62410 -72.64243 10909 ft 252 kts 97°
2026-04-26 21:43 40.61770 -72.62152 10756 ft 243 kts 121°
2026-04-26 21:44 40.60580 -72.60604 10403 ft 243 kts 146°
2026-04-26 21:44 40.59007 -72.59808 9970 ft 246 kts 172°
2026-04-26 21:44 40.57329 -72.59896 9604 ft 241 kts 194°
2026-04-26 21:44 40.55803 -72.60727 9114 ft 238 kts 219°
2026-04-26 21:45 40.54554 -72.62128 8682 ft 237 kts 223°
2026-04-26 21:45 40.53337 -72.63556 8247 ft 237 kts 223°
2026-04-26 21:45 40.52106 -72.65010 7925 ft 232 kts 223°
2026-04-26 21:45 40.50926 -72.66404 7565 ft 229 kts 223°
2026-04-26 21:46 40.49816 -72.67829 7382 ft 216 kts 237°
2026-04-26 21:46 40.49226 -72.69561 7152 ft 204 kts 261°
2026-04-26 21:46 40.49094 -72.71394 6800 ft 200 kts 279°
2026-04-26 21:46 40.49392 -72.73143 6453 ft 194 kts 299°
2026-04-26 21:47 40.50100 -72.74602 6099 ft 187 kts 319°
2026-04-26 21:47 40.51081 -72.75659 5769 ft 178 kts 336°
2026-04-26 21:47 40.52206 -72.76250 5394 ft 172 kts 353°
2026-04-26 21:47 40.53373 -72.76377 5052 ft 166 kts
2026-04-26 21:48 40.54505 -72.76182 4708 ft 163 kts 17°
2026-04-26 21:48 40.55591 -72.75788 4337 ft 164 kts 10°
2026-04-26 21:48 40.56748 -72.76021 3957 ft 171 kts 353°
2026-04-26 21:48 40.57901 -72.76369 3600 ft 170 kts 353°
2026-04-26 21:49 40.59056 -72.76705 3231 ft 170 kts 354°
2026-04-26 21:49 40.60212 -72.77035 2852 ft 169 kts 354°
2026-04-26 21:49 40.61331 -72.77352 2756 ft 161 kts 354°
2026-04-26 21:49 40.62473 -72.77667 2748 ft 168 kts 354°
2026-04-26 21:50 40.63572 -72.77972 2669 ft 156 kts 355°
2026-04-26 21:50 40.64262 -72.78164 2701 ft 149 kts 354°
2026-04-26 21:50 40.65567 -72.78522 2625 ft 139 kts 356°
2026-04-26 21:50 40.66525 -72.78781 2622 ft 142 kts 356°
2026-04-26 21:51 40.67498 -72.79041 2601 ft 143 kts 355°
2026-04-26 21:51 40.68489 -72.79307 2360 ft 145 kts 356°
2026-04-26 21:51 40.69467 -72.79568 2089 ft 142 kts 355°
2026-04-26 21:51 40.70431 -72.79826 1859 ft 141 kts 355°
2026-04-26 21:52 40.71390 -72.80082 1820 ft 141 kts 355°
2026-04-26 21:52 40.72349 -72.80338 1806 ft 143 kts 355°
2026-04-26 21:52 40.73425 -72.80616 1825 ft 171 kts 354°
2026-04-26 21:52 40.74567 -72.80920 1790 ft 158 kts 354°
2026-04-26 21:53 40.75579 -72.81197 1802 ft 138 kts 355°
2026-04-26 21:53 40.76531 -72.81452 1797 ft 139 kts 355°
2026-04-26 21:53 40.77450 -72.81697 1794 ft 136 kts 356°
2026-04-26 21:53 40.78372 -72.81942 1798 ft 134 kts 355°
2026-04-26 21:54 40.79281 -72.82184 1789 ft 133 kts 355°
2026-04-26 21:54 40.80186 -72.82425 1800 ft 133 kts 356°
2026-04-26 21:54 40.81102 -72.82668 1807 ft 135 kts 356°
2026-04-26 21:54 40.82032 -72.82914 1816 ft 137 kts 355°
2026-04-26 21:55 40.82656 -72.83080 1798 ft 138 kts 356°
2026-04-26 21:55 40.83568 -72.83325 1786 ft 129 kts 356°
2026-04-26 21:55 40.84444 -72.83558 1803 ft 136 kts 356°
2026-04-26 21:55 40.85423 -72.83813 1808 ft 143 kts 356°
2026-04-26 21:56 40.86399 -72.84073 1796 ft 144 kts 356°
2026-04-26 21:56 40.87383 -72.84335 1791 ft 145 kts 355°
2026-04-26 21:56 40.88370 -72.84598 1803 ft 145 kts 355°
2026-04-26 21:56 40.89369 -72.84864 1798 ft 147 kts 356°
2026-04-26 21:57 40.90376 -72.85132 1797 ft 148 kts 356°
2026-04-26 21:57 40.91388 -72.85401 1793 ft 149 kts 354°
2026-04-26 21:57 40.92405 -72.85673 1803 ft 149 kts 353°
2026-04-26 21:57 40.93427 -72.85946 1798 ft 150 kts 354°
2026-04-26 21:58 40.94448 -72.86219 1797 ft 149 kts 354°
2026-04-26 21:58 40.95463 -72.86490 1806 ft 149 kts 354°
2026-04-26 21:58 40.96490 -72.86762 1800 ft 151 kts 354°
2026-04-26 21:58 40.97516 -72.87038 1801 ft 149 kts 354°
2026-04-26 21:59 40.98529 -72.87310 1793 ft 148 kts 354°
2026-04-26 21:59 40.99535 -72.87579 1796 ft 147 kts 354°
2026-04-26 21:59 41.00530 -72.87845 1799 ft 148 kts 354°
2026-04-26 21:59 41.01536 -72.88114 1807 ft 147 kts 354°
2026-04-26 22:00 41.02544 -72.88383 1806 ft 148 kts 354°
2026-04-26 22:00 41.03553 -72.88653 1804 ft 148 kts 354°
2026-04-26 22:00 41.04561 -72.88923 1807 ft 148 kts 354°
2026-04-26 22:00 41.05572 -72.89193 1803 ft 148 kts 354°
2026-04-26 22:01 41.06581 -72.89463 1809 ft 147 kts 354°
2026-04-26 22:01 41.07586 -72.89732 1809 ft 148 kts 354°
2026-04-26 22:01 41.08600 -72.89898 1809 ft 146 kts
2026-04-26 22:01 41.09614 -72.89893 1809 ft 145 kts
2026-04-26 22:02 41.10622 -72.89836 1807 ft 143 kts
2026-04-26 22:02 41.11603 -72.89772 1798 ft 139 kts
2026-04-26 22:02 41.12581 -72.89705 1697 ft 142 kts
2026-04-26 22:02 41.13553 -72.89639 1651 ft 144 kts
2026-04-26 22:03 41.14579 -72.89570 1537 ft 145 kts
2026-04-26 22:03 41.15557 -72.89505 1517 ft 140 kts
2026-04-26 22:03 41.16544 -72.89437 1518 ft 143 kts
2026-04-26 22:03 41.17540 -72.89370 1528 ft 143 kts
2026-04-26 22:04 41.18537 -72.89302 1455 ft 145 kts
2026-04-26 22:04 41.19549 -72.89234 1255 ft 145 kts
2026-04-26 22:04 41.20560 -72.89165 1059 ft 146 kts
2026-04-26 22:04 41.21589 -72.89095 859 ft 151 kts
2026-04-26 22:05 41.22639 -72.89025 667 ft 151 kts
2026-04-26 22:05 41.23646 -72.88957 456 ft 141 kts
2026-04-26 22:05 41.24579 -72.88894 275 ft 129 kts
2026-04-26 22:05 41.25450 -72.88838 93 ft 126 kts
2026-04-26 22:06 41.26288 -72.88768 16 ft 90 kts
2026-04-26 22:06 41.26694 -72.88749 13 ft 45 kts
2026-04-26 22:06 41.26895 -72.88736 16 ft 21 kts
2026-04-26 22:06 41.26966 -72.88797 16 ft 13 kts 274°
2026-04-26 22:07 41.26969 -72.88840 16 ft 3 kts 276°
2026-04-26 22:07 41.26965 -72.88888 16 ft 9 kts 239°
2026-04-26 22:07 41.26891 -72.88910 15 ft 13 kts 190°
2026-04-26 22:07 41.26860 -72.88999 18 ft 13 kts 304°
2026-04-26 22:08 41.26883 -72.89036 16 ft 0 kts 311°
2026-04-26 22:08 41.26887 -72.89042 16 ft 0 kts 311°